AirNav   Everest Fuels
 
 1313 users online  

66CA Rancho San Simeon Airport
Cambria, California, USA

GOING TO CAMBRIA?


FAA INFORMATION EFFECTIVE 30 JANUARY 2020

Location

FAA Identifier: 66CA
Lat/Long: 35-36-27.8940N 121-06-36.6960W
35-36.464900N 121-06.611600W
35.6077483,-121.1101933
(estimated)
Elevation: 320 ft. / 98 m (estimated)
Variation: 15E (1985)
From city: 3 miles NW of CAMBRIA, CA
Time zone: UTC -8 (UTC -7 during Daylight Saving Time)
Zip code: 93428

Airport Operations

Airport use: Private use. Permission required prior to landing
Activation date: 09/1982
Control tower: no
ARTCC: OAKLAND CENTER
FSS: HAWTHORNE FLIGHT SERVICE STATION
Attendance: UNATNDD
Wind indicator: yes
Segmented circle: no

Nearby radio navigation aids

VOR radial/distance  VOR name  Freq  Var
PRBr245/23.9PASO ROBLES VORTAC114.3016E
MQOr305/27.4MORRO BAY VORTAC112.4016E
ROMr198/(38.6)PRIEST VOR110.0016E

 
NDB name  Hdg/Dist  Freq  Var  ID
HUNTER LIGGETT155/21.620915EHGT .... --. -

Airport Services

Airframe service: NONE
Powerplant service: NONE

Runway Information

Runway 1/19

Dimensions: 1800 x 65 ft. / 549 x 20 m
Surface: asphalt
RUNWAY 1  RUNWAY 19
Traffic pattern: leftleft

Airport Ownership and Management from official FAA records

Ownership: Privately-owned
Owner: CLYDE WARREN
PO BOX 528
MURPHY, OR 97533
Manager: CLYDE WARREN
PO BOX 528
MURPHY, OR 97533

Airport Operational Statistics

Aircraft based on the field: 2
Single engine airplanes: 1
Helicopters: 1
    

Additional Remarks

FOR CD CTC OAKLAND ARTCC AT 510-745-3380.

Instrument Procedures

There are no published instrument procedures at 66CA.

Some nearby airports with instrument procedures:

KPRB - Paso Robles Municipal Airport (24 nm E)
KHGT - Tusi Army Heliport (Hunter Liggett) (24 nm N)
KSBP - San Luis County Regional Airport (32 nm SE)
KSMX - Santa Maria Public Airport/Capt G Allan Hancock Field (53 nm SE)
KVBG - Vandenberg Air Force Base (58 nm SE)
 
Loc | Ops | Rwys | IFR | FBO | Links
Com | Nav | Svcs | Stats | Notes
Area around 66CA (Rancho San Simeon Airport)
 
Road maps at: MapQuest Bing Google
 
Aerial photo
WARNING: Photo may not be current or correct
Aerial photo of 66CA (Rancho San Simeon Airport)
Photo by Andrew Brown
Photo taken 19-Jun-2010

Do you have a better or more recent aerial photo of Rancho San Simeon Airport that you would like to share? If so, please send us your photo.

 
Sectional chart

 
Airport distance calculator
Flying to Rancho San Simeon Airport? Find the distance to fly.

From to 66CA

Sunrise and sunset
Times for 19-Feb-2020
 Local
(UTC-8)
 Zulu
(UTC)
Morning civil twilight06:2214:22
Sunrise06:4814:48
Sunset17:4901:49
Evening civil twilight18:1502:15

Current date and time
Zulu (UTC)  19-Feb-2020 22:39:15
Local (UTC-8)  19-Feb-2020 14:39:15
 
METAR
KPRB 
24nm E 
192153Z AUTO VRB03KT 10SM CLR 21/M01 A3006 RMK AO2 SLP176 T02061011
KSBP 
32nm SE 
192156Z 31011KT 10SM CLR 21/06 A3004 RMK AO2 SLP171 T02060056
KL52 
39nm SE 
192215Z AUTO 29007G13KT 4SM HZ CLR 15/11 A3006 RMK A01
TAF
KPRB 
24nm E 
191730Z 1918/2018 VRB03KT P6SM SKC FM200000 10007KT P6SM SKC FM200700 VRB03KT P6SM SKC
NOTAMs
Click for the latest NOTAMs
NOTAMs are issued by the DoD/FAA and will open in a separate window not controlled by AirNav.

 

 
 

Would you like to see your business listed on this page?

 If your business provides an interesting product or service to pilots, flight crews, aircraft, or users of the Rancho San Simeon Airport, you should consider listing it here.  To start the listing process, click on the button below
 
Add a business
 

Other Pages about Rancho San Simeon Airport

Update a link
 
Copyright © AirNav, LLC. All rights reserved. Privacy Policy  Contact